Regional Weather Roundup
Issued by NWS

Home | Current Version | Previous Version | Text Only | Print | Product List | Glossary Off
Versions: 1 2 3 4 5 6 7 8 9 10 11 12 13 14 15 16 17 18 19 20 21 22 23 24 25 26 27 28 29 30 31 32 33 34 35 36 37 38 39 40 41 42 43 44 45 46 47 48 49 50

000
ASUS43 KMKX 271821
RWRWI

WISCONSIN REGIONAL WEATHER ROUNDUP
NATIONAL WEATHER SERVICE MILWAUKEE/SULLIVAN WI
100 PM CDT THU APR 27 2017

NOTE: "FAIR" INDICATES FEW OR NO CLOUDS BELOW 12,000 FEET WITH NO
SIGNIFICANT WEATHER AND/OR OBSTRUCTIONS TO VISIBILITY.

WIZ001-002-006>008-014>016-023>028-271900-
NORTHWEST WISCONSIN

CITY           SKY/WX    TMP DP  RH WIND       PRES   REMARKS
SUPERIOR ARPT  CLOUDY    29  22  75 CALM      29.54S
6HR MIN TEMP:  26; 6HR MAX TEMP:  29;

ASHLAND        CLOUDY    27  23  85 W12       29.51R WCI  17
6HR MIN TEMP:  27; 6HR MAX TEMP:  28;

HAYWARD        CLOUDY    28  22  78 VRB6      29.50S WCI  22
6HR MIN TEMP:  27; 6HR MAX TEMP:  28; 6HR PCP: TRACE;

SIREN          CLOUDY    29  23  78 W10G17    29.55S WCI  20
6HR MIN TEMP:  27; 6HR MAX TEMP:  30;

CUMBERLAND     CLOUDY    28  25  86 NW13G18   29.53R WCI  18
RICE LAKE      CLOUDY    31  26  83 W14       29.54R WCI  20
6HR MIN TEMP:  29; 6HR MAX TEMP:  31;

CHETEK         CLOUDY    32  28  87 W8        29.52  WCI  24
LADYSMITH      CLOUDY    32  27  81 NW12      29.51R WCI  23
6HR MIN TEMP:  30; 6HR MAX TEMP:  32;

EAU CLAIRE     CLOUDY    34  28  79 W12       29.53R WCI  25
6HR MIN TEMP:  32; 6HR MAX TEMP:  34;

MENOMONIE      CLOUDY    34  28  78 W13       29.55R WCI  25
6HR MIN TEMP:  33; 6HR MAX TEMP:  34;

NEW RICHMOND   CLOUDY    32  25  74 NW14G20   29.55S WCI  22
6HR MIN TEMP:  30; 6HR MAX TEMP:  32;

OSCEOLA        CLOUDY    32  24  72 W13       29.59S WCI  23
6HR MIN TEMP:  30; 6HR MAX TEMP:  32;

$$

WIZ003>005-009-010-017-018-271900-
NORTH CENTRAL WISCONSIN

CITY           SKY/WX    TMP DP  RH WIND       PRES   REMARKS
MANITOWISH WTR LGT SNOW  26  26 100 NW8       29.42R VSB 1   WCI  18
ARBOR VITAE    LGT SNOW  31  29  92 NW8       29.41S VSB 3/4 WCI  24
6HR MIN TEMP:  29; 6HR MAX TEMP:  32; 6HR PCP:  0.33;

WOODRUFF       LGT SNOW  31  29  92 NW8       29.41S VSB 3/4 WCI  24
6HR MIN TEMP:  29; 6HR MAX TEMP:  32; 6HR PCP:  0.33;

RHINELANDER    SNOW      30  26  85 W14       29.42R VSB 1/2 WCI  19
6HR MIN TEMP:  30; 6HR MAX TEMP:  32; 6HR PCP:  0.40;

EAGLE RIVER    LGT SNOW  28  26  91 NW12G17   29.40R VSB 3/4 WCI  18
6HR MIN TEMP:  28; 6HR MAX TEMP:  30;

LAND O LAKES   LGT SNOW  29  26  88 NW8       29.40S VSB 3/4 WCI  21
6HR MIN TEMP:  28; 6HR MAX TEMP:  29;

PHILLIPS       LGT SNOW  28  26  94 W5        29.45S VSB 3/4 WCI  22
6HR MIN TEMP:  27; 6HR MAX TEMP:  28; 6HR PCP:  0.15;

TOMAHAWK       LGT SNOW  29  26  88 W10G16    29.45R WCI  20
6HR MIN TEMP:  28; 6HR MAX TEMP:  30;

MEDFORD        MIX PCPN  29  27  92 W8        29.47R WCI  22
6HR MIN TEMP:  28; 6HR MAX TEMP:  30; 6HR PCP:  0.12;

MERRILL        LGT SNOW  30  28  93 NW6       29.46R VSB 1   WCI  24
6HR MIN TEMP:  30; 6HR MAX TEMP:  32; 6HR PCP:  0.27;

$$

WIZ029-030-035-036-043>047-271900-
CENTRAL WISCONSIN

CITY           SKY/WX    TMP DP  RH WIND       PRES   REMARKS
WAUSAU         LGT SNOW  31  29  92 W15       29.45R VSB 3/4 WCI  20
6HR MIN TEMP:  30; 6HR MAX TEMP:  33; 6HR PCP:  0.38;

MOSINEE        LGT SNOW  30  30 100 W12       29.49R VSB 1   WCI  21
MARSHFIELD     CLOUDY    32  29  88 W15G22    29.49R FOG     WCI  22
6HR MIN TEMP:  30; 6HR MAX TEMP:  33; 6HR PCP:  0.15;

STEVENS POINT  MIX PCPN  31  30  97 W10G16    29.49R WCI  22
6HR MIN TEMP:  30; 6HR MAX TEMP:  33;

WAUPACA        LGT SNOW  36  33  90 W12G21    29.49R WCI  27
6HR MIN TEMP:  36; 6HR MAX TEMP:  40; 6HR PCP:  0.07;

WAUTOMA        FLURRIES  35  33  92 W13       29.51R WCI  26
6HR MIN TEMP:  33; 6HR MAX TEMP:  38; 6HR PCP:  0.27;

WISC RAPIDS    LGT SNOW  34  33  96 NW9       29.51S FOG     WCI  27
6HR MIN TEMP:  32; 6HR MAX TEMP:  35; 6HR PCP:  0.27;

CAMP DOUGLAS   CLOUDY    36  32  87 W12       29.53R WCI  27
                                      6HR PCP:  0.20;

$$

WIZ011>013-019>022-031-037>040-048>050-271900-
NORTHEAST WISCONSIN

CITY           SKY/WX    TMP DP  RH WIND       PRES   REMARKS
ANTIGO         LGT SNOW  31  31  97 W13G18    29.41R WCI  22
6HR MIN TEMP:  31; 6HR MAX TEMP:  33; 6HR PCP:  0.23;

SHAWANO        RAIN      37  35  91 W9        29.43R WCI  30
6HR MIN TEMP:  36; 6HR MAX TEMP:  40; 6HR PCP:  0.46;

OCONTO         NOT AVBL
STURGEON BAY   LGT RAIN  41  37  87 SW14      29.40R
6HR MIN TEMP:  38; 6HR MAX TEMP:  41; 6HR PCP:  0.09;

GREEN BAY      LGT RAIN  40  37  89 W21       29.44R WCI  30
6HR MIN TEMP:  39; 6HR MAX TEMP:  43; 6HR PCP:  0.27;

MANITOWOC      CLOUDY    41  35  79 W18G31    29.45R
6HR MIN TEMP:  41; 6HR MAX TEMP:  46; 6HR PCP:  0.10;

APPLETON       LGT SNOW  36  36 100 W21G29    29.44R WCI  24
CLINTONVILLE   LGT RAIN  34  34 100 W10G18    29.45R WCI  26
OSHKOSH        FLURRIES  36  31  82 W13G25    29.48R WCI  27
6HR MIN TEMP:  36; 6HR MAX TEMP:  42; 6HR PCP:  0.22;

$$

WIZ032>034-041-042-053>061-271900-
SOUTHWEST WISCONSIN

CITY           SKY/WX    TMP DP  RH WIND       PRES   REMARKS
LA CROSSE      CLOUDY    43  34  70 W12       29.55R
6HR MIN TEMP:  37; 6HR MAX TEMP:  43; 6HR PCP: TRACE;

SPARTA         CLOUDY    37  34  88 W7        29.54S WCI  32
6HR MIN TEMP:  32; 6HR MAX TEMP:  37; 6HR PCP:  0.16;

VIROQUA        CLOUDY    39  35  88 W12G18    29.54R WCI  31
6HR MIN TEMP:  32; 6HR MAX TEMP:  39; 6HR PCP:  0.01;

BOSCOBEL       LGT RAIN  42  36  79 W14       29.58R
6HR MIN TEMP:  36; 6HR MAX TEMP:  44; 6HR PCP:  0.09;

PRAIRIE DU CHI CLOUDY    41  32  69 W14G23    29.59R
6HR MIN TEMP:  37; 6HR MAX TEMP:  42; 6HR PCP:  0.01;

PLATTEVILLE    CLOUDY    42  39  91 W16G24    29.58S
6HR MIN TEMP:  33; 6HR MAX TEMP:  42;

$$

WIZ056-057-062-063-064-067-068-271900-
SOUTH CENTRAL WISCONSIN

CITY           SKY/WX    TMP DP  RH WIND       PRES   REMARKS
REEDSBURG      CLOUDY    38  35  88 W10       29.54R WCI  31
6HR MIN TEMP:  32; 6HR MAX TEMP:  38; 6HR PCP:  0.12;

BARABOO/DELLS  CLOUDY    38  33  84 W12G20    29.53R WCI  30
6HR MIN TEMP:  32; 6HR MAX TEMP:  38; 6HR PCP:  0.12;

LONE ROCK      LGT RAIN  41  35  79 W15       29.56R
6HR MIN TEMP:  34; 6HR MAX TEMP:  42; 6HR PCP:  0.15;

MINERAL POINT  CLOUDY    41  37  87 W16G22    29.55S
MADISON        CLOUDY    40  34  79 W7        29.54R
6HR MIN TEMP:  35; 6HR MAX TEMP:  40; 6HR PCP:  0.19;

MIDDLETON      CLOUDY    40  36  86 W10       29.55R WCI  34
6HR MIN TEMP:  37; 6HR MAX TEMP:  41; 6HR PCP:  0.02;

WATERTOWN      CLOUDY    38  35  89 W13G21    29.54R WCI  30
6HR MIN TEMP:  37; 6HR MAX TEMP:  41; 6HR PCP:  0.20;

MONROE         CLOUDY    39  36  87 W21       29.56S WCI  29
JANESVILLE     CLOUDY    41  41 100 W16G26    29.56R
$$

WIZ051-052-058>065-066-070>072-271900-
SOUTHEAST WISCONSIN

CITY           SKY/WX    TMP DP  RH WIND       PRES   REMARKS
MILWAUKEE      CLOUDY    44  36  73 W16G25    29.54R
6HR MIN TEMP:  44; 6HR MAX TEMP:  50; 6HR PCP:  0.06;

WAUKESHA       CLOUDY    37  34  87 W17G23    29.54R WCI  28
MILWAUKEE/TIMM DRIZZLE   39  34  81 W18G25    29.53R WCI  30
RACINE         CLOUDY    45  34  65 W20G26    29.57R
6HR MIN TEMP:  45; 6HR MAX TEMP:  51; 6HR PCP:  0.06;

KENOSHA        CLOUDY    45  36  70 W24       29.56R
6HR MIN TEMP:  44; 6HR MAX TEMP:  49; 6HR PCP:  0.03;

FOND DU LAC    FLURRIES  37  32  82 W14G24    29.50R WCI  28
6HR MIN TEMP:  37; 6HR MAX TEMP:  44; 6HR PCP:  0.21;

SHEBOYGAN      LGT RAIN  41  37  86 W22       29.47R
6HR MIN TEMP:  41; 6HR MAX TEMP:  48; 6HR PCP:  0.13;

WEST BEND      CLOUDY    37  36  93 W17G25    29.50R WCI  28
JUNEAU         CLOUDY    37  32  83 W17G23    29.54R WCI  27
6HR MIN TEMP:  35; 6HR MAX TEMP:  41; 6HR PCP:  0.09;

$$

LSZ147-162-271900-
LAKE SUPERIOR

STATION/POSITION TIME  TEMP    WIND        PRES    WAVE
                       AIR SEA DIR/SP/G            HT/PER
                 (UTC) (F)     (DEG/KT/KT) (MB)    (FT/S)
DEVILS ISLAND    1800   27     300/ 14/ 16  999.6R
PORT WING        1740   28     290/ 14/ 17 1000.0R
SAXON HARBOR     1740   28     300/  9/ 12  999.0S
$$

LMZ867-665-643>646-271900-
LAKE MICHIGAN

STATION/POSITION TIME  TEMP    WIND        PRES    WAVE
                       AIR SEA DIR/SP/G            HT/PER
                 (UTC) (F)     (DEG/KT/KT) (MB)    (FT/S)
CHAMBERS ISLAND  1740   39     250/  6/ 10  993.9R
N MID LAKE BUOY  1750   41 37  180/ 21/ 27  991.9F   2/ 4
NORTHPORT PIER   1740   39     300/  9/ 15  993.6R
SISTER BAY       1621   36     330/ 19/ 22   N/A
KEWAUNEE LAKESHO 1754   41     250/ 13/ 21  99



USA.gov is the U.S. government's official web portal to all federal, state and local government web resources and services.